This is the latest recevied weather packets stored in our database for station/object OM2RC-6. If no packets are shown the sender has not sent any weather packets the latest 10 day(s).
| Time | Temp. | Humidity | Pressure | Rain* | Wind** | Luminosity | Snow |
|---|---|---|---|---|---|---|---|
| 1778172398 | 18.33° C | 79% | 1013.6 hPa | - | - | - | - |
| 1778171795 | 18.89° C | 75% | 1013.5 hPa | - | - | - | - |
| 1778171493 | 19.44° C | 72% | 1013.4 hPa | - | - | - | - |
| 1778171192 | 20.56° C | 70% | 1013.4 hPa | - | - | - | - |
| 1778170891 | 21.11° C | 66% | 1013.2 hPa | - | - | - | - |
| 1778170288 | 20.56° C | 68% | 1013.4 hPa | - | - | - | - |
| 1778169987 | 20° C | 67% | 1013.5 hPa | - | - | - | - |
| 1778169685 | 19.44° C | 70% | 1013.4 hPa | - | - | - | - |
| 1778169383 | 19.44° C | 66% | 1013.4 hPa | - | - | - | - |
| 1778169078 | 20° C | 66% | 1013.5 hPa | - | - | - | - |
| 1778168777 | 19.44° C | 62% | 1013.6 hPa | - | - | - | - |
| 1778168476 | 19.44° C | 60% | 1013.7 hPa | - | - | - | - |
| 1778168175 | 20° C | 56% | 1013.7 hPa | - | - | - | - |
| 1778167873 | 20° C | 54% | 1013.6 hPa | - | - | - | - |
| 1778167572 | 20.56° C | 52% | 1013.6 hPa | - | - | - | - |
| 1778167271 | 21.11° C | 52% | 1013.5 hPa | - | - | - | - |
| 1778166670 | 21.11° C | 55% | 1013.5 hPa | - | - | - | - |
| 1778166368 | 20° C | 56% | 1013.6 hPa | - | - | - | - |
| 1778166067 | 20° C | 55% | 1013.5 hPa | - | - | - | - |
| 1778165766 | 21.11° C | 52% | 1013.6 hPa | - | - | - | - |
| 1778165465 | 21.11° C | 51% | 1013.6 hPa | - | - | - | - |
| 1778165162 | 22.22° C | 50% | 1013.6 hPa | - | - | - | - |
| 1778164860 | 21.67° C | 49% | 1013.6 hPa | - | - | - | - |
| 1778164257 | 21.11° C | 51% | 1013.6 hPa | - | - | - | - |
| 1778163955 | 21.67° C | 49% | 1013.6 hPa | - | - | - | - |
* Rain since midnight (hover to see other rain measurements)
** Current wind speed in m/s (hover to see current wind gust speed)